GEFSNGP_850_meantemp_030.txt.gz
Temperature
23 24 25 25 25 24 22 20 19 19 18 18 17 17 20 20 20 19 18 18 17 17 16 15 14 14 13 13 12 12 11 11 11 10 10 9 9 9 8 8 8 8 7 7
22 24 24 24 25 25 24 23 21 20 19 18 20 20 20 20 19 18 18 18 17 17 16 15 14 13 13 12 12 11 11 11 10 10 9 9 9 8 8 8 7 7 7 7
20 21 22 22 24 25 24 24 22 20 19 18 18 19 19 19 19 19 18 18 17 16 15 15 14 13 13 12 12 11 11 10 10 9 9 9 8 8 7 7 7 7 7 7
19 20 22 21 23 25 23 23 21 20 19 19 19 20 20 20 19 19 18 17 17 16 15 14 14 13 12 12 11 11 10 10 9 9 8 8 8 8 7 7 7 7 7 7
18 20 21 22 24 24 22 21 20 19 19 19 19 18 18 19 19 19 18 17 16 15 15 14 13 13 12 11 11 10 10 9 9 8 8 8 7 7 7 7 7 7 7 7
19 20 20 21 23 24 21 20 21 20 19 20 19 16 17 19 19 18 18 17 16 15 15 14 13 12 12 11 10 10 9 9 8 8 7 7 7 7 7 7 7 7 8 8
19 19 19 22 24 24 21 20 22 22 22 22 20 19 21 20 19 18 18 17 16 15 14 14 13 12 11 10 10 9 9 8 8 7 7 7 7 7 7 7 7 7 7 8
18 19 20 23 24 22 21 23 24 23 23 22 22 21 21 20 19 18 18 17 16 15 14 13 12 12 11 10 9 9 8 8 8 7 7 7 7 7 7 7 7 7 7 7
19 19 22 25 25 26 25 24 24 23 23 23 22 21 21 20 19 18 18 17 16 15 14 13 12 11 10 9 9 8 8 8 7 7 7 7 7 7 7 7 7 7 7 7
20 19 22 25 26 26 25 25 25 24 23 23 22 22 21 20 19 18 18 17 16 15 14 13 12 11 10 9 8 8 8 7 7 7 7 7 7 7 7 7 7 7 7 7
19 19 23 25 26 26 25 25 25 24 24 23 23 22 21 20 19 18 18 17 16 15 14 13 12 11 10 9 8 8 8 7 7 7 7 7 7 7 8 8 8 7 7 7
19 22 20 24 26 26 25 25 25 24 23 23 23 22 21 20 19 19 18 17 16 15 14 13 12 11 10 9 8 8 8 7 7 7 7 7 7 8 9 8 8 8 8 7
24 25 25 25 25 25 25 25 25 24 24 23 23 22 21 20 19 18 18 17 16 15 14 13 12 11 10 9 9 8 7 7 7 7 7 7 7 7 8 9 9 8 8 8
25 25 25 25 25 25 25 24 24 24 24 23 23 22 21 20 19 18 18 17 16 15 14 13 13 12 10 9 9 8 7 7 7 7 7 7 7 8 8 8 8 9 8 8
24 24 24 24 24 24 24 24 23 23 23 23 22 21 21 20 19 18 17 16 16 15 14 13 13 12 10 9 9 8 7 7 7 7 7 7 7 8 8 8 8 8 8 8
22 22 22 22 21 21 21 21 21 21 22 22 21 21 20 19 18 17 17 16 15 15 14 14 13 12 10 10 9 8 8 7 7 7 7 7 7 8 8 8 8 8 8 8
19 18 18 18 18 18 18 19 19 20 20 20 20 20 19 18 17 17 16 16 15 15 14 14 13 12 11 10 9 9 8 7 7 7 7 7 7 8 8 8 8 8 8 8
16 16 16 16 16 16 17 17 18 18 19 19 19 19 18 18 17 17 16 16 15 15 14 13 12 11 11 10 9 8 8 7 7 7 7 7 7 8 8 8 8 8 8 8
15 15 15 15 15 15 16 16 16 17 17 17 18 18 18 18 17 17 16 15 15 14 14 13 12 11 11 10 9 8 8 7 7 7 7 7 7 8 8 8 8 8 8 8
14 14 14 14 15 15 15 15 15 16 16 16 16 16 16 16 16 16 15 15 15 14 13 13 12 11 10 10 9 8 8 7 7 7 7 7 7 8 8 8 8 8 8 8
13 13 13 13 14 14 14 14 14 14 14 14 14 14 15 15 15 15 15 15 14 14 13 12 11 11 10 9 9 8 7 7 7 6 6 7 7 7 8 8 8 8 8 8
12 12 12 12 12 13 13 13 13 13 13 13 13 13 14 14 14 14 14 14 13 13 12 11 11 10 9 9 8 7 7 6 6 6 6 6 7 7 8 8 8 8 8 8
12 12 12 12 12 12 12 12 12 12 12 12 12 12 12 13 13 13 13 13 13 12 11 11 10 9 9 8 8 7 6 6 6 6 6 6 6 7 7 8 8 8 8 8
11 11 11 12 12 12 12 11 11 11 11 11 11 12 12 12 12 12 12 12 12 11 11 10 9 9 8 8 7 7 6 6 6 6 5 5 6 6 7 7 8 8 8 8
11 11 11 11 11 11 11 11 11 11 11 11 11 11 11 11 11 11 11 11 11 10 10 9 8 8 7 7 6 6 6 5 5 5 5 5 5 6 7 7 8 8 8 8
10 10 10 11 11 11 10 10 10 10 10 10 10 10 10 10 10 10 10 10 9 9 8 8 7 7 6 6 6 6 5 5 4 4 4 4 5 6 6 7 8 8 8 8
9 10 10 10 10 10 10 10 10 10 10 10 9 9 9 9 9 9 9 9 8 8 7 7 6 6 6 5 5 5 4 4 3 3 3 4 4 5 6 7 7 8 8 8

GEFSNGP_850_meantemp_036.txt.gz
Temperature
19 20 20 21 21 20 18 17 17 18 17 18 17 16 19 20 20 20 20 20 19 19 18 17 16 15 14 14 13 12 12 11 11 10 10 10 9 9 9 9 8 8 8 8
21 22 21 21 21 21 20 19 18 19 18 17 18 18 18 19 20 20 20 20 19 18 18 17 16 15 14 13 13 12 11 11 10 10 10 9 9 9 9 9 8 8 8 7
19 20 21 21 22 22 22 20 19 19 19 18 17 16 19 20 20 21 20 20 19 18 17 16 15 15 14 13 12 12 11 11 10 10 9 9 9 8 8 8 8 8 7 7
18 21 22 20 21 21 21 21 19 19 18 17 18 21 22 22 21 21 20 19 19 18 17 16 15 14 14 13 12 12 11 10 10 9 9 9 8 8 8 8 7 7 7 7
16 18 19 20 21 21 21 21 20 18 18 18 18 19 20 22 21 21 20 19 19 18 17 16 15 14 14 13 12 11 11 10 9 9 8 8 8 8 7 7 7 7 7 7
16 18 19 20 21 22 21 21 20 18 17 17 17 16 18 22 21 21 20 19 19 18 17 16 15 14 14 13 12 11 11 10 9 8 8 8 8 7 7 7 7 7 7 7
16 17 18 19 20 21 21 19 22 21 21 19 17 20 23 23 22 21 21 20 19 18 17 16 15 14 14 13 12 11 11 10 9 8 8 8 7 7 7 7 7 7 8 8
15 17 18 20 20 19 20 23 24 24 23 22 23 23 23 22 22 22 21 20 19 18 17 16 15 14 14 13 12 11 11 10 9 9 8 7 7 7 7 7 7 8 8 8
16 18 20 21 21 23 23 23 24 24 25 24 23 23 23 22 22 22 21 20 19 18 17 16 15 14 14 13 12 12 11 10 10 9 8 7 7 7 7 7 7 8 8 8
15 16 20 23 23 24 24 24 25 25 24 24 23 23 23 23 22 22 21 20 19 17 17 16 15 15 14 13 13 12 11 10 10 9 8 8 7 7 7 7 8 8 8 8
15 16 19 23 24 24 24 24 24 25 24 24 23 23 23 23 23 22 21 20 18 17 17 16 15 15 14 13 13 12 11 10 9 9 8 8 8 7 7 8 7 7 8 8
16 19 17 20 21 21 22 22 23 23 23 23 23 23 23 23 22 22 21 20 18 17 17 16 15 15 14 13 12 12 11 10 9 9 8 8 8 8 8 8 8 8 8 8
19 19 18 18 18 19 19 20 21 21 21 21 21 21 21 21 21 20 20 19 18 17 17 16 15 14 14 13 12 12 11 10 9 9 8 8 7 7 8 9 9 8 8 8
17 17 15 15 15 16 17 18 19 19 19 19 20 20 20 19 19 19 19 18 17 17 16 16 15 14 13 13 12 11 11 10 9 8 8 7 7 7 7 8 8 9 9 8
14 14 13 13 15 16 16 17 17 17 17 18 18 18 18 18 18 18 18 17 17 16 16 16 15 14 13 12 12 11 11 10 9 8 8 7 7 7 7 7 8 8 8 8
13 13 14 14 14 14 15 15 15 15 15 16 16 16 16 16 16 17 17 16 16 16 16 15 15 14 13 12 12 11 10 9 9 8 8 7 7 7 7 7 8 8 8 8
12 12 12 12 12 13 13 13 13 14 14 15 15 15 15 15 16 16 16 16 15 15 15 15 14 13 13 12 11 11 10 9 8 8 7 7 7 7 7 7 8 8 8 8
12 12 12 12 12 12 13 13 13 13 13 14 14 14 14 14 14 14 14 14 14 14 14 14 14 13 12 12 11 10 10 9 8 8 7 7 7 7 7 7 7 8 8 8
12 12 12 12 12 12 12 12 13 13 13 13 13 13 13 13 13 13 13 13 13 13 14 13 13 13 12 11 11 10 9 9 8 7 7 7 7 7 7 7 7 8 8 8
11 11 11 12 12 12 12 12 12 12 12 12 12 12 12 12 12 12 12 12 12 12 12 12 12 12 11 11 10 9 9 8 8 7 7 6 6 6 7 7 7 7 8 8
11 11 11 11 11 11 11 11 11 11 11 11 11 11 11 11 11 11 11 11 11 11 11 11 11 11 11 10 9 9 8 8 7 7 6 6 6 6 6 6 7 7 7 7
11 10 10 10 10 10 11 11 10 10 10 10 10 10 10 10 10 10 10 10 10 11 11 11 10 10 10 9 9 8 7 7 7 6 6 6 6 6 6 6 7 7 7 7
10 10 9 9 9 9 10 10 10 10 10 10 10 10 9 9 9 9 9 9 9 9 9 9 9 9 9 8 8 7 7 6 6 6 5 5 5 5 5 6 6 7 7 7
9 9 9 9 9 9 9 9 9 9 9 9 9 9 9 9 9 9 9 8 9 9 9 9 8 8 7 7 7 6 6 6 5 5 5 4 4 4 5 5 6 6 7 7
9 9 9 9 9 9 9 9 9 9 9 9 9 9 8 8 8 8 8 8 8 8 8 7 7 7 6 6 6 6 5 5 5 4 4 4 3 4 4 5 6 6 6 7
9 8 8 8 8 8 8 8 8 8 8 8 8 8 8 8 8 8 7 7 7 7 6 6 6 5 5 5 5 4 4 4 4 3 3 3 3 3 4 4 5 6 6 7
8 8 8 8 8 8 8 8 8 8 8 8 8 8 8 7 7 7 7 6 6 6 5 5 5 4 4 4 4 3 3 3 3 3 3 3 2 3 3 4 5 6 6 7

GEFSNGP_850_meantemp_042.txt.gz
Temperature
28 28 28 28 28 28 27 27 27 27 27 28 28 28 27 26 24 23 22 21 21 20 20 19 18 18 17 17 16 15 14 14 13 12 12 11 11 10 10 10 9 9 9 9
27 28 28 27 27 27 27 27 27 27 27 29 28 26 26 25 24 23 22 22 21 21 20 19 19 18 17 17 16 15 14 14 13 12 12 11 10 10 10 9 9 9 9 9
26 28 27 26 27 27 27 28 27 27 28 28 27 27 26 25 24 24 23 22 22 21 20 20 19 18 17 17 16 15 14 14 13 12 12 11 10 10 10 9 9 9 9 8
26 26 25 27 29 28 27 28 28 27 28 28 27 26 25 24 24 24 23 23 22 21 21 20 19 18 18 17 16 15 14 14 13 12 12 11 10 10 10 9 9 9 8 8
26 26 26 28 28 28 27 27 28 28 28 27 26 25 26 25 24 24 23 23 22 22 21 20 19 18 17 16 16 15 14 14 13 12 12 11 11 10 10 9 9 9 8 8
25 25 24 27 27 27 27 26 28 27 27 27 26 26 27 26 25 24 23 23 22 21 21 20 19 18 18 16 16 15 14 13 13 12 12 12 11 11 10 9 9 9 8 8
25 25 26 27 26 26 26 25 26 26 26 26 26 26 26 25 25 24 23 22 22 21 20 20 19 19 18 17 16 15 14 14 13 13 12 12 11 11 10 9 9 8 8 8
25 25 25 26 26 26 24 24 24 24 24 24 24 24 24 24 23 23 22 22 21 20 20 19 19 19 18 17 16 15 15 14 13 13 12 11 11 11 10 9 8 8 8 8
26 26 25 24 23 22 22 22 22 22 23 23 23 23 23 23 22 22 21 21 20 20 19 19 19 18 18 17 16 15 15 14 13 13 12 12 11 10 9 8 8 8 8 8
25 26 24 22 20 19 19 19 20 20 21 21 22 22 21 21 20 20 20 19 19 19 18 18 18 17 17 16 16 15 15 14 13 13 12 11 10 9 9 9 8 8 8 8
24 24 23 20 18 18 17 18 18 18 19 19 19 19 19 19 18 18 18 18 18 17 17 16 16 17 16 16 15 15 14 14 13 12 12 11 10 10 9 9 8 8 8 8
23 20 20 18 17 17 17 17 17 17 17 17 17 17 17 17 17 17 17 16 16 16 16 16 16 16 16 15 15 15 14 13 12 12 11 11 10 10 10 9 9 8 8 8
18 17 17 16 16 16 16 16 16 16 16 16 16 16 16 16 16 16 16 16 16 15 15 15 15 15 15 14 14 14 13 13 12 12 11 11 10 10 10 10 9 9 8 8
16 16 16 15 15 15 16 16 16 16 15 15 15 15 15 15 15 15 15 15 15 15 14 15 14 14 14 14 13 13 13 12 12 12 11 10 10 10 9 9 9 9 9 8
15 15 15 15 15 15 15 15 15 15 15 14 14 14 14 14 14 14 14 14 14 14 14 13 13 13 13 13 12 12 12 12 11 11 11 10 10 9 9 9 9 9 9 8
14 14 14 14 13 13 13 13 14 14 14 14 14 13 13 13 13 13 13 13 13 13 12 12 12 12 12 11 11 11 12 12 11 11 10 10 10 10 9 9 9 9 8 8
13 13 13 12 12 12 13 13 13 13 13 13 13 13 13 12 12 12 12 11 11 11 11 11 11 11 11 10 10 11 11 11 11 10 10 10 9 9 9 9 8 8 8 8
12 12 11 11 11 12 12 12 12 12 12 12 12 12 12 12 11 11 11 11 11 11 11 10 10 10 10 10 10 10 10 10 10 10 10 9 9 9 9 8 8 8 8 8
11 11 11 11 11 11 11 11 11 11 11 11 11 11 11 11 11 10 10 10 10 10 10 9 9 9 9 9 9 9 9 9 9 9 9 9 8 8 8 8 8 8 7 7
11 11 11 11 11 11 11 11 10 10 10 10 10 10 10 10 10 10 10 10 10 9 8 8 8 9 9 9 9 9 9 8 8 8 8 8 8 8 8 8 7 7 7 7
11 11 11 11 11 11 10 10 10 10 10 10 10 10 10 10 9 9 9 10 9 8 8 8 8 8 8 8 8 8 8 8 8 8 7 7 7 7 7 7 6 6 6 6
11 11 10 10 10 10 10 9 10 10 9 9 9 9 9 9 9 9 9 9 8 8 7 7 7 7 7 7 7 7 7 7 7 6 6 6 6 6 6 6 6 5 6 6
10 10 10 10 10 9 9 9 9 9 9 9 9 9 9 9 9 9 8 8 8 7 7 7 6 6 6 6 6 6 6 6 6 6 6 6 6 5 5 5 5 5 5 5
10 9 9 9 9 9 9 9 9 9 9 9 9 9 9 9 9 9 8 7 7 6 6 6 6 5 5 5 5 5 5 5 4 5 5 5 5 4 4 4 4 4 4 5
9 9 9 9 9 9 9 9 9 9 9 9 9 9 9 9 8 8 7 7 6 6 5 5 5 4 4 4 4 4 3 3 3 3 3 3 3 3 3 3 3 4 4 5
9 9 9 9 9 8 9 9 9 9 9 9 9 9 9 8 8 7 7 6 5 5 4 4 3 3 3 3 2 2 2 2 2 2 2 2 2 2 2 3 3 4 4 5
9 9 9 9 9 9 9 9 9 9 9 8 8 8 8 8 7 7 6 5 5 4 3 3 2 2 2 1 1 1 1 1 1 1 1 2 2 2 2 2 3 3 4 4

GEFSNGP_850_meantemp_048.txt.gz
Temperature
29 29 29 28 29 30 29 29 28 28 28 29 29 29 29 29 28 28 27 26 25 24 23 22 22 21 20 20 19 18 18 17 17 16 16 15 15 14 14 13 13 12 12 11
28 29 29 29 30 30 29 29 29 29 29 29 29 29 29 29 28 28 27 26 25 24 23 22 21 21 20 19 19 18 18 17 17 16 16 15 15 14 14 13 13 12 12 12
27 28 28 27 28 28 29 29 29 28 29 29 29 29 28 28 28 28 27 26 25 24 23 22 21 21 20 20 19 19 18 18 17 16 16 15 15 14 14 13 13 13 12 12
27 27 25 26 27 28 28 29 29 29 29 29 29 28 28 28 27 27 27 26 26 25 24 23 22 21 20 20 19 19 18 18 17 16 16 15 15 15 14 14 13 13 12 12
27 26 26 26 26 25 25 26 28 28 28 28 28 28 27 27 27 27 26 26 25 25 24 23 22 22 21 20 19 18 18 17 17 16 16 16 15 15 15 14 14 13 12 11
26 26 25 25 24 24 24 23 25 26 26 27 27 27 26 26 26 26 26 25 25 25 24 24 23 22 21 20 19 18 18 17 17 17 16 16 15 15 15 14 14 13 12 11
26 26 25 24 25 25 23 21 24 25 25 26 26 25 25 25 25 24 24 24 24 24 24 23 23 22 21 20 19 19 18 17 17 16 16 16 15 15 15 14 13 13 12 12
25 24 22 23 23 22 21 23 23 24 24 24 24 24 23 23 23 23 23 23 23 23 22 22 22 21 21 20 19 18 18 17 17 16 16 15 15 15 14 14 13 12 12 12
25 24 21 20 20 21 22 22 22 23 23 22 22 22 21 20 20 20 20 20 20 20 20 20 20 20 19 19 18 17 17 17 16 16 16 15 15 14 14 13 12 12 12 12
24 22 21 21 21 22 22 22 21 21 21 21 20 20 19 19 18 18 18 18 18 18 18 19 18 18 18 17 17 16 16 16 16 15 15 15 14 14 13 13 12 12 12 12
23 22 21 21 21 21 21 21 20 20 20 19 19 19 18 18 17 17 17 17 17 17 17 17 17 17 16 16 15 15 15 15 15 14 14 14 14 13 13 13 13 12 12 12
23 22 22 20 20 21 20 20 19 19 18 18 18 17 17 17 16 16 16 16 16 16 16 16 16 15 15 15 14 14 14 14 14 14 14 14 13 13 13 13 13 13 12 12
21 21 21 20 20 20 20 19 19 18 17 17 16 16 16 16 16 15 15 15 15 14 14 14 14 14 14 14 13 13 13 13 13 13 13 13 13 13 13 13 13 13 12 12
20 20 20 19 19 18 18 18 18 17 16 16 16 15 15 15 15 15 14 14 14 14 13 13 13 13 12 12 12 12 12 12 12 12 12 12 13 13 12 13 12 12 12 12
19 19 18 17 17 17 17 17 16 16 16 15 15 15 15 14 14 14 14 13 13 13 13 12 12 12 11 11 11 11 11 11 11 12 12 12 12 12 12 12 12 12 12 11
18 17 17 16 16 16 16 16 15 15 15 15 15 14 14 14 14 13 13 13 12 12 11 11 11 10 10 10 10 10 10 11 11 11 11 12 12 12 12 12 12 11 11 11
17 17 16 16 15 15 15 15 15 15 14 14 14 14 13 13 13 12 12 12 11 11 11 11 10 10 10 9 9 9 9 10 10 10 11 11 11 11 11 11 11 11 11 11
15 15 14 14 14 14 14 14 14 14 14 13 13 13 12 12 12 11 11 11 11 11 10 10 10 9 9 9 9 8 8 9 9 9 10 10 10 10 10 10 10 10 10 10
15 14 14 14 14 14 14 14 13 13 13 12 12 12 12 11 11 11 11 10 10 10 10 10 9 9 9 8 8 8 8 8 8 8 9 9 9 9 9 9 9 9 9 10
14 14 14 14 14 14 13 13 13 12 12 12 12 11 11 11 11 10 10 10 10 10 9 9 9 9 8 8 7 7 7 7 7 7 8 8 8 8 8 9 9 9 9 9
14 14 14 14 13 13 13 12 12 12 12 12 11 11 11 11 10 10 10 10 10 9 9 9 8 8 7 7 6 6 6 6 6 6 6 7 7 7 7 8 8 8 8 8
13 13 13 13 13 12 12 12 12 12 11 11 11 11 11 10 11 11 10 10 10 9 9 8 8 7 7 6 5 5 5 5 5 5 5 5 6 6 6 7 7 7 7 7
13 12 12 12 12 12 11 11 11 11 11 11 11 11 11 11 11 11 10 10 9 9 8 7 7 6 6 5 5 4 4 4 4 4 4 4 5 5 5 5 5 6 5 5
12 12 11 11 11 11 11 11 11 11 11 11 11 11 11 11 11 10 10 9 9 8 7 6 6 5 5 4 3 3 3 3 3 3 3 3 3 4 4 4 4 4 4 4
11 11 11 11 11 11 11 11 11 11 11 11 11 11 11 10 10 10 9 8 7 7 6 5 4 4 3 3 2 2 2 2 2 2 2 2 2 2 2 3 3 3 3 4
11 11 11 11 11 11 11 11 11 11 11 11 11 10 10 10 9 9 8 7 6 5 5 4 3 3 2 1 1 1 1 1 1 1 1 1 1 1 2 2 2 2 3 3
11 11 11 11 11 11 11 11 10 10 10 10 10 9 9 9 8 7 6 5 5 4 3 2 2 1 1 1 0 0 0 -0 0 0 0 0 1 1 1 1 2 2 2 3

GEFSNGP_850_meantemp_054.txt.gz
Temperature
22 23 23 23 24 24 22 21 20 20 21 21 21 21 23 24 25 25 25 25 25 24 24 24 23 23 22 22 21 21 21 20 20 19 19 18 17 17 16 16 16 15 15 15
23 24 23 23 23 23 22 21 21 21 20 20 21 22 23 24 24 24 25 25 25 25 24 24 24 23 23 22 22 21 21 21 20 19 19 18 18 17 17 16 16 16 15 15
21 22 23 22 22 21 19 18 19 18 18 18 19 20 21 22 23 23 24 24 24 24 24 24 24 23 23 23 22 21 21 21 20 19 19 18 18 17 17 17 16 16 15 15
19 21 22 20 20 21 19 18 18 18 18 18 18 19 20 21 22 23 23 23 24 24 24 24 24 23 23 22 22 21 21 20 20 19 19 18 18 17 17 17 16 16 15 15
17 19 20 20 20 19 18 17 17 17 18 18 19 19 18 19 20 21 22 22 23 23 23 23 23 23 22 22 21 21 20 20 20 19 19 18 18 17 17 16 16 16 16 15
17 18 19 19 19 19 18 17 17 17 17 18 18 16 16 17 19 20 21 21 21 22 22 22 22 22 21 21 21 20 20 20 20 19 18 18 18 17 17 16 16 16 15 15
16 17 18 18 18 19 18 17 17 18 18 18 17 16 16 17 18 19 19 19 19 20 20 20 20 20 20 20 19 20 19 19 19 18 18 17 17 16 16 16 15 15 15 15
16 16 17 17 17 17 17 18 18 18 18 18 17 16 16 17 17 17 18 18 18 18 18 18 18 18 18 18 18 18 18 17 17 17 16 16 16 15 15 15 15 15 15 14
15 16 16 16 17 18 18 18 18 18 18 17 16 16 16 16 16 16 16 16 16 17 17 17 16 17 16 16 16 16 16 16 16 15 15 15 15 14 14 14 14 14 14 14
14 15 15 16 17 18 18 18 18 18 17 17 16 16 16 16 16 16 16 16 16 16 16 15 15 15 15 15 15 15 14 14 14 14 14 14 13 13 13 13 13 13 13 13
14 15 15 16 17 17 17 17 17 17 17 16 16 16 16 15 15 15 15 15 14 14 14 14 14 14 14 14 14 13 13 13 13 12 12 12 12 12 12 12 12 12 12 12
14 15 14 15 16 17 17 16 16 16 16 16 16 15 15 15 14 14 14 14 14 13 13 13 13 12 12 12 12 12 12 12 12 11 11 11 11 11 11 11 11 11 11 12
17 16 16 16 16 16 16 16 16 16 15 15 15 15 14 14 14 13 13 13 12 12 12 12 11 11 11 11 11 11 11 11 10 10 10 10 10 10 10 10 11 11 11 11
16 16 15 16 16 16 16 15 15 15 15 14 14 14 14 13 13 12 12 12 12 11 11 11 11 11 10 10 10 10 10 10 9 9 9 9 9 9 9 9 9 10 10 10
16 16 15 15 15 15 15 15 15 14 14 14 14 13 13 12 12 12 11 11 11 11 11 10 10 10 10 10 10 10 9 9 9 8 8 8 8 8 8 8 8 9 9 10
15 15 15 15 15 15 14 14 14 14 13 13 13 12 12 12 11 11 11 11 11 10 10 10 10 10 10 10 9 9 9 8 8 8 8 7 7 7 7 7 7 8 8 8
15 14 14 14 14 14 14 14 13 13 13 13 12 12 12 11 11 11 11 10 10 10 10 10 10 10 9 9 9 9 8 8 8 7 7 6 6 6 6 6 6 7 7 8
15 14 14 14 14 14 13 13 13 13 12 12 12 11 11 11 11 11 10 10 10 10 10 10 10 9 9 9 8 8 8 7 7 6 6 6 5 5 5 5 5 6 6 7
14 14 14 14 13 13 13 13 12 12 12 12 11 11 11 11 11 11 10 10 10 10 10 10 9 9 9 8 8 7 7 6 6 5 5 5 5 5 5 5 5 5 6 6
14 14 13 13 13 13 12 12 12 12 11 11 11 11 11 11 11 10 10 10 10 10 9 9 9 8 8 8 7 6 6 5 5 4 4 4 4 4 4 4 4 4 5 5
13 13 12 12 12 12 12 11 11 11 11 11 11 11 11 11 11 10 10 10 10 9 9 8 8 8 7 6 6 5 5 4 4 3 3 3 3 3 3 3 3 4 4 4
12 12 12 12 11 11 11 11 11 11 11 11 11 11 11 11 10 10 10 9 9 9 8 8 7 6 6 5 4 4 3 3 2 2 2 2 2 2 2 2 3 3 3 3
11 11 11 11 11 11 11 11 11 11 11 11 11 11 10 10 10 10 9 9 8 8 7 6 6 5 4 4 3 2 2 2 1 1 1 1 1 1 1 2 2 2 2 2
11 11 11 11 11 11 11 11 10 10 10 10 10 10 10 10 9 9 8 8 7 6 6 5 4 3 3 2 2 1 1 1 0 0 0 0 0 1 1 1 1 1 2 2
11 11 11 10 10 10 10 10 10 10 10 9 9 9 9 9 8 8 7 6 6 5 4 3 3 2 1 1 0 0 -0 -0 -0 -1 -0 -0 -0 0 0 1 1 1 1 2
10 10 10 9 9 9 9 9 9 9 9 9 8 8 8 8 7 7 6 5 5 4 3 2 2 1 0 -0 -0 -1 -1 -1 -1 -1 -1 -1 -0 -0 0 0 1 1 1 2
9 9 9 9 8 8 8 8 8 8 8 8 7 7 7 7 6 5 5 4 3 2 2 1 1 -0 -1 -1 -1 -1 -1 -1 -1 -1 -1 -1 -1 -0 -0 0 1 1 1 2

GEFSNGP_850_meantemp_060.txt.gz
Temperature
20 20 21 21 21 19 18 17 17 18 18 17 16 16 16 17 19 20 21 22 22 23 23 23 23 23 23 22 22 22 21 21 20 20 20 19 19 18 18 18 18 17 17 17
21 21 21 21 20 20 19 18 18 18 18 17 15 15 15 16 17 18 19 21 21 22 22 23 23 23 23 22 22 22 21 21 20 20 20 19 19 18 18 18 18 17 17 17
19 20 21 20 20 19 18 18 18 18 17 16 15 14 14 14 15 16 17 19 20 21 21 22 22 22 22 22 22 21 21 21 20 20 19 19 19 18 18 18 18 17 17 17
17 20 20 19 18 18 18 17 16 16 16 15 14 14 14 14 15 16 17 18 19 20 20 20 21 21 21 21 20 20 20 19 19 19 19 18 18 18 18 17 17 17 17 16
16 18 19 18 18 17 17 17 16 16 15 15 15 15 14 14 15 16 17 17 18 18 19 19 19 19 19 19 19 19 18 18 18 18 18 17 17 17 17 17 16 16 16 16
15 18 18 18 18 18 18 17 17 16 15 15 16 15 13 14 15 16 16 17 17 17 18 18 18 18 18 18 17 17 17 16 16 16 16 16 16 16 16 15 15 15 15 15
16 17 17 17 17 17 17 17 17 16 16 16 14 14 14 14 15 16 16 16 16 17 17 16 16 16 16 16 15 15 15 15 15 15 15 15 15 14 14 14 14 14 14 14
14 16 17 16 17 16 16 16 16 16 16 15 14 14 14 14 15 15 15 15 15 15 15 15 15 15 15 14 14 14 14 14 14 13 13 13 13 13 13 12 12 12 13 13
14 15 15 15 15 16 16 16 16 16 15 15 14 14 14 14 14 15 15 14 14 14 14 14 14 13 13 13 13 13 13 13 12 12 12 12 12 12 12 11 11 11 11 11
14 14 14 15 15 16 16 16 16 15 15 15 14 14 14 14 14 14 14 13 13 13 13 13 12 12 12 12 11 12 12 11 11 11 11 11 11 10 10 10 10 10 10 10
14 13 13 14 15 15 16 16 15 15 15 15 15 14 14 14 13 13 13 12 12 12 12 11 11 11 11 11 11 11 10 10 10 10 10 10 10 9 9 9 9 9 9 9
14 14 13 13 14 15 15 15 15 14 14 14 14 14 13 13 13 12 12 12 11 11 11 11 10 10 10 10 10 10 10 10 9 9 9 9 9 9 9 9 8 8 8 8
15 15 15 14 14 14 15 14 14 14 14 14 13 13 13 13 12 12 11 11 11 11 10 10 10 10 10 10 10 9 9 9 9 9 9 8 8 8 8 8 8 8 8 7
14 14 13 13 13 14 14 14 14 14 13 13 13 13 13 12 12 11 11 11 10 10 10 10 10 10 10 9 9 9 9 9 8 8 8 8 7 7 7 6 6 7 7 7
14 14 14 13 13 13 13 13 13 13 13 13 13 12 12 12 11 11 11 10 10 10 10 10 10 10 9 9 9 9 9 8 8 8 7 7 7 6 6 6 5 5 5 6
14 14 13 13 13 13 13 13 13 13 13 12 12 12 12 11 11 11 10 10 10 10 10 10 10 10 9 9 9 9 8 8 7 7 7 6 6 5 5 5 4 4 4 4
13 13 13 13 13 13 13 13 13 13 12 12 12 11 11 11 11 11 10 10 10 10 10 10 9 9 9 9 8 8 8 7 7 6 6 5 5 5 4 4 3 3 3 4
14 13 13 13 13 13 13 12 12 12 12 12 11 11 11 11 11 10 10 10 10 10 10 10 9 9 9 8 8 7 7 6 6 5 4 4 4 3 3 3 3 3 3 3
13 13 13 13 12 12 12 12 12 12 11 11 11 11 11 10 10 10 10 10 10 10 9 9 9 8 8 7 7 6 6 5 4 4 3 3 2 2 2 2 2 2 2 2
12 12 12 12 12 12 12 11 11 11 11 11 11 10 10 10 10 10 10 10 10 9 9 8 8 8 7 6 6 5 4 3 3 2 2 1 1 1 1 1 1 1 1 1
11 11 12 11 11 11 11 11 11 11 10 10 10 10 10 10 10 10 10 9 9 8 8 7 7 6 6 5 4 3 3 2 1 1 0 0 0 0 0 0 0 0 1 1
11 11 11 11 11 11 10 10 10 10 10 10 10 10 10 10 9 9 9 8 8 7 7 6 6 5 4 4 3 2 1 1 0 -0 -0 -0 -1 -1 -0 -0 -0 0 0 1
10 10 10 10 10 10 10 10 10 10 10 9 9 9 9 9 9 8 8 7 7 6 6 5 4 3 3 2 1 1 0 -0 -1 -1 -1 -1 -1 -1 -1 -1 -0 -0 0 0
10 10 10 10 10 9 9 9 9 9 9 9 8 8 8 8 8 7 7 6 6 5 4 3 3 2 2 1 0 -0 -1 -1 -2 -2 -1 -1 -1 -1 -1 -1 -1 -0 0 0
9 9 9 9 9 9 8 8 8 8 8 8 8 7 7 7 7 6 6 5 4 3 3 2 1 1 0 -0 -1 -1 -2 -2 -2 -2 -2 -2 -2 -1 -1 -1 -1 -0 -0 0
8 8 8 8 8 8 7 7 7 7 7 7 7 6 6 6 5 5 4 3 3 2 1 1 0 -0 -1 -1 -2 -2 -2 -2 -2 -2 -2 -2 -2 -1 -1 -1 -1 -0 0 0
7 7 7 7 7 6 6 6 6 6 6 6 6 5 5 5 4 3 3 2 2 1 1 0 -0 -1 -1 -2 -2 -2 -2 -2 -2 -2 -2 -2 -2 -1 -1 -1 -1 -0 -0 0

GEFSNGP_850_meantemp_066.txt.gz
Temperature
28 29 28 28 28 28 27 27 27 27 27 26 24 23 22 22 21 21 21 21 21 21 20 20 20 20 20 19 19 19 19 19 19 19 19 19 19 19 19 18 18 18 18 17
27 28 28 27 28 28 27 27 27 27 26 24 22 21 21 20 20 20 20 19 19 19 19 19 19 19 19 19 19 19 19 19 18 18 18 18 18 18 18 18 18 18 17 17
27 27 27 26 28 28 27 27 27 27 26 23 22 21 20 19 19 18 18 17 17 17 17 17 18 18 18 18 18 17 17 17 17 17 17 17 17 17 17 17 17 17 17 17
27 26 24 27 27 27 27 27 26 25 24 23 20 18 17 17 17 17 16 16 16 16 16 17 17 17 17 17 17 17 16 16 16 16 16 16 16 16 16 16 16 16 16 16
26 26 26 26 26 26 26 25 25 24 22 20 18 18 17 16 15 15 15 14 14 15 15 16 16 16 16 16 16 15 15 15 15 15 15 15 15 15 15 15 15 15 15 14
25 25 25 26 25 24 25 24 24 23 22 20 20 22 18 15 14 14 14 14 14 14 14 15 15 15 16 15 15 14 14 14 14 14 14 14 14 14 14 14 13 13 13 13
25 25 26 25 24 24 24 23 23 22 21 21 21 20 16 14 14 13 13 13 13 13 14 14 14 14 14 14 13 13 13 13 13 13 13 13 13 13 13 12 12 12 12 12
24 24 24 23 23 24 22 21 21 21 20 19 17 15 15 14 13 13 13 13 13 13 12 12 13 13 13 12 12 12 12 12 12 12 12 11 11 11 11 11 11 11 11 11
25 24 22 22 22 20 20 20 20 20 19 17 16 15 14 13 13 13 13 13 13 12 12 11 11 12 12 11 11 10 11 10 10 10 10 10 10 10 10 10 10 10 10 10
23 23 22 21 20 19 19 19 19 18 17 16 15 14 14 13 13 13 12 12 12 12 12 11 11 10 10 10 10 10 10 10 10 10 10 10 10 10 10 10 10 9 9 9
23 22 21 19 19 18 18 17 17 16 16 15 14 14 13 13 13 12 12 12 12 11 11 11 10 10 10 10 10 10 10 10 10 10 10 9 9 9 9 8 8 8 8 8
22 21 21 18 17 17 16 16 16 15 14 14 14 13 13 13 12 12 12 12 11 11 11 10 10 10 10 9 9 9 10 10 10 10 10 9 9 9 9 8 8 7 7 7
18 18 18 16 16 16 16 15 15 14 14 13 13 13 12 12 12 12 11 11 11 11 10 10 10 10 9 9 9 9 9 9 9 9 9 9 9 9 9 8 8 7 7 6
16 16 16 16 15 15 15 14 14 14 13 13 12 12 12 12 12 12 11 11 11 10 10 10 10 10 9 9 9 9 9 9 9 9 9 8 8 8 8 8 7 7 7 6
15 15 15 14 14 14 14 14 13 13 13 12 12 12 12 12 12 11 11 11 10 10 10 10 10 9 9 9 8 8 8 8 8 8 8 8 7 7 7 7 6 6 6 5
14 14 14 14 14 14 14 13 13 13 12 12 12 12 12 11 11 11 11 10 10 10 10 9 9 9 9 8 8 8 8 8 7 7 7 7 6 6 6 5 5 5 4 4
15 14 14 14 14 14 13 13 13 12 12 12 12 12 11 11 11 11 11 10 10 10 9 9 8 8 8 8 7 7 7 7 6 6 6 5 5 4 4 4 3 3 3 3
14 14 14 13 13 13 12 12 12 12 12 12 12 12 11 11 11 11 10 10 10 9 9 8 8 8 7 7 7 6 6 6 5 5 4 4 3 3 3 3 2 2 2 2
13 13 12 12 12 12 12 12 12 12 11 11 11 11 11 11 10 10 10 9 9 9 8 8 7 7 6 6 6 5 5 5 4 4 3 3 2 2 2 2 1 1 1 1
12 12 12 12 12 12 12 11 11 11 11 11 11 10 10 10 10 9 9 9 8 8 7 7 6 5 5 5 5 4 4 3 3 3 2 2 1 1 1 1 1 1 1 0
11 11 11 11 11 11 11 11 11 10 10 10 10 10 10 9 9 9 9 9 7 7 6 6 5 4 4 4 3 3 3 2 1 1 1 0 0 0 0 -0 -0 -0 0 0
11 11 11 11 11 11 10 10 10 10 10 9 9 9 9 9 9 8 7 7 6 6 5 4 4 4 4 3 2 2 1 0 0 -0 -0 -0 -0 -0 -1 -1 -0 -0 -0 -0
10 10 10 10 10 10 10 10 9 9 9 9 8 8 8 8 8 7 6 5 5 5 4 3 3 3 3 1 1 0 -0 -0 -1 -1 -1 -1 -1 -1 -1 -1 -1 -1 -1 -0
9 9 9 9 9 9 9 9 9 8 8 8 8 7 7 7 6 6 5 5 4 4 3 3 2 2 1 1 0 -0 -1 -1 -1 -1 -1 -1 -1 -1 -1 -1 -1 -1 -1 -1
9 9 9 9 9 9 9 8 8 8 8 7 7 6 6 6 5 4 4 3 3 3 2 2 1 1 0 -0 -1 -1 -1 -1 -1 -1 -1 -1 -1 -1 -1 -1 -1 -1 -1 -1
8 9 8 8 8 8 8 8 8 7 7 7 6 6 5 4 4 3 3 3 2 2 1 1 0 0 -0 -0 -1 -1 -1 -1 -1 -1 -1 -1 -1 -1 -1 -1 -1 -1 -1 -1
8 8 8 8 8 7 7 7 7 7 6 6 5 5 4 4 3 3 2 2 2 1 1 0 0 -0 -0 -1 -1 -1 -1 -1 -1 -1 -2 -1 -1 -1 -1 -2 -2 -1 -1 -1